Location: Harbor Side
(32.6101°N, 117.0814°W)
Time: 07:36:58
(UTC+00:00)

Cosmos 1470 - Pass Details

Date: 21 April 2021
Orbit: 519 x 542 km, 82.5° (Epoch: 13 May)

Event Time Altitude Azimuth Distance (km) Brightness Sun altitude
Rises 12:17:09 0° 347° (NNW) 2,647 6.4 -11.7°
Reaches altitude 10° 12:19:20 10° 342° (NNW) 1,757 5.4 -11.3°
Maximum altitude 12:23:03 49° 267° (W) 680 2.9 -10.5°
Drops below altitude 10° 12:26:46 10° 192° (SSW) 1,752 5.1 -9.8°
Sets 12:28:56 0° 186° (S) 2,639 6.0 -9.4°
